Pittsburgh, PA

2:17 PM EDT on August 28, 2016 (GMT -0400)
Pittsburgh International

Weather History for KPIT - March, 2014

Change the Weather History Date:

Sunday, March 2, 2014

  Actual Average Record
Temperature  
Mean Temperature 27 °F 35 °F  
Max Temperature 41 °F 44 °F 74 °F (1991)
Min Temperature 13 °F 26 °F -1 °F (1980)
Degree Days  
Heating Degree Days 38 30  
Month to date heating degree days 71 61  
Since 1 July heating degree days 4602 4318  
Cooling Degree Days 0 0  
Month to date cooling degree days 0 0  
Year to date cooling degree days 0 0  
Moisture  
Dew Point 18 °F    
Average Humidity 73    
Maximum Humidity 92    
Minimum Humidity 53    
Precipitation  
Precipitation 0.15 in 0.09 in 0.85 in (1972)
Month to date precipitation 0.15 0.17  
Year to date precipitation 4.58 5.26  
Snow  
Snow 2.40 in 0.40 in 6.70 in (1982)
Month to date snowfall 2.4 0.7  
Since 1 July snowfall 60.8 33.5  
Snow Depth 0.00 in    
Sea Level Pressure  
Sea Level Pressure 30.15 in    
Wind  
Wind Speed 11 mph (North)    
Max Wind Speed 18 mph    
Max Gust Speed 24 mph    
Visibility 6 miles    
Events Snow    
T = Trace of Precipitation, MM = Missing Value Source: NWS Daily Summary

Daily Weather History Graph

Daily Weather History Graph

Search for Another Location

Airport or City:

Trip Planner

Search our weather history database for the weather conditions in past years. The results will help you decide how hot, cold, wet, or windy it might be!

Date:

Astronomy

Mar. 02, 2014 Rise Set
Actual Time 6:53 AM EST 6:13 PM EST
Civil Twilight 6:25 AM EST 6:40 PM EST
Nautical Twilight 5:54 AM EST 7:12 PM EST
Astronomical Twilight 5:22 AM EST 7:44 PM EST
Moon 7:22 AM EST (3/2) 8:08 PM EST (3/2)
Length of Visible Light 12h 15m
Length of Day
11h 20m
Waxing Crescent, 3% of the Moon is Illuminated
Mar 2
Waxing Crescent
Mar 8
First Quarter
Mar 16
Full
Mar 23
Last Quarter
Mar 30
New

Hourly Weather History & Observations

Time (EST) Temp. Windchill Dew Point Humidity Pressure Visibility Wind Dir Wind Speed Gust Speed Precip Events Conditions
12:51 AM 37.9 °F 30.5 °F 30.9 °F 76% 30.11 in 10.0 mi North 11.5 mph - N/A   Overcast
1:11 AM 35.6 °F 25.9 °F 24.8 °F 65% 30.07 in 10.0 mi North 16.1 mph - N/A   Overcast
1:51 AM 33.1 °F 23.9 °F 21.9 °F 64% 30.14 in 10.0 mi North 12.7 mph - N/A   Overcast
2:20 AM 32.0 °F 22.1 °F 21.2 °F 64% 30.09 in 9.0 mi North 13.8 mph 24.2 mph 0.00 in Snow Light Snow
2:51 AM 30.9 °F 21.7 °F 24.1 °F 76% 30.14 in 8.0 mi North 11.5 mph - 0.00 in   Overcast
3:37 AM 28.4 °F 19.1 °F 24.8 °F 86% 30.08 in 6.0 mi NNW 10.4 mph - 0.00 in Snow Light Snow
3:51 AM 28.9 °F 20.4 °F 24.1 °F 82% 30.13 in 6.0 mi NNW 9.2 mph - 0.00 in Snow Light Snow
4:34 AM 28.4 °F 19.7 °F 24.8 °F 86% 30.10 in 7.0 mi North 9.2 mph - 0.00 in   Overcast
4:51 AM 27.0 °F 16.7 °F 24.1 °F 89% 30.16 in 4.0 mi NNW 11.5 mph - 0.00 in Snow Light Snow
5:22 AM 26.6 °F 16.2 °F 24.8 °F 93% 30.12 in 2.0 mi NNW 11.5 mph - 0.00 in Snow Light Snow
5:40 AM 26.6 °F 18.2 °F 24.8 °F 93% 30.12 in 2.5 mi NNW 8.1 mph - 0.00 in Snow Light Freezing Drizzle
5:51 AM 26.1 °F 19.4 °F 24.1 °F 92% 30.17 in 2.5 mi NNW 5.8 mph - 0.00 in Snow Light Snow
6:13 AM 24.8 °F 16.1 °F 21.2 °F 86% 30.10 in 3.0 mi North 8.1 mph - 0.00 in Snow Light Snow
6:34 AM 24.8 °F 15.3 °F 21.2 °F 86% 30.13 in 6.0 mi NNW 9.2 mph - 0.00 in Snow Light Snow
6:51 AM 25.0 °F 14.8 °F 21.0 °F 85% 30.19 in 3.0 mi NNW 10.4 mph - 0.00 in Snow Light Snow
7:12 AM 24.8 °F 14.6 °F 21.2 °F 86% 30.13 in 2.0 mi NNW 10.4 mph - 0.01 in Snow Light Snow
7:51 AM 24.1 °F 14.4 °F 19.9 °F 84% 30.19 in 2.0 mi NNW 9.2 mph - 0.01 in Snow Light Snow
8:11 AM 24.8 °F 14.6 °F 19.4 °F 80% 30.14 in 1.0 mi North 10.4 mph - 0.00 in Snow Light Snow
8:51 AM 23.0 °F 13.1 °F 19.9 °F 88% 30.19 in 1.0 mi NNW 9.2 mph - 0.01 in Snow Light Snow
9:51 AM 21.9 °F 11.7 °F 19.0 °F 89% 30.18 in 0.8 mi North 9.2 mph - 0.01 in Snow Light Snow
10:51 AM 21.9 °F 11.7 °F 19.0 °F 89% 30.19 in 0.5 mi North 9.2 mph - 0.02 in Snow Snow
11:51 AM 21.9 °F 11.7 °F 18.0 °F 85% 30.19 in 0.5 mi NNW 9.2 mph - 0.03 in Snow Snow
12:31 PM 21.2 °F 11.7 °F 17.6 °F 86% 30.11 in 0.8 mi North 8.1 mph - 0.01 in Snow Light Snow
12:51 PM 21.9 °F 11.0 °F 17.1 °F 82% 30.17 in 0.8 mi North 10.4 mph - 0.01 in Snow Light Snow
1:12 PM 21.2 °F 10.1 °F 15.8 °F 80% 30.09 in 3.0 mi North 10.4 mph - 0.00 in Snow Light Snow
1:27 PM 21.2 °F 10.9 °F 17.6 °F 86% 30.10 in 2.0 mi North 9.2 mph - 0.00 in Snow Light Snow
1:51 PM 21.0 °F 9.3 °F 16.0 °F 81% 30.16 in 2.0 mi North 11.5 mph - 0.00 in Snow Light Snow
2:18 PM 21.2 °F 10.9 °F 15.8 °F 80% 30.09 in 5.0 mi North 9.2 mph - 0.00 in Snow Light Snow
2:35 PM 21.2 °F 9.5 °F 15.8 °F 80% 30.09 in 8.0 mi North 11.5 mph - 0.00 in   Overcast
2:51 PM 21.9 °F 11.7 °F 15.1 °F 75% 30.16 in 9.0 mi NNW 9.2 mph - 0.00 in   Overcast
3:51 PM 21.9 °F 11.0 °F 14.0 °F 72% 30.17 in 10.0 mi NNW 10.4 mph - N/A   Overcast
4:51 PM 21.9 °F 11.7 °F 12.9 °F 68% 30.17 in 10.0 mi North 9.2 mph - N/A   Overcast
5:51 PM 21.0 °F 9.3 °F 12.0 °F 68% 30.17 in 10.0 mi North 11.5 mph - N/A   Overcast
6:51 PM 19.9 °F 8.6 °F 9.0 °F 62% 30.19 in 10.0 mi NNW 10.4 mph - N/A   Overcast
7:51 PM 19.0 °F 6.8 °F 9.0 °F 65% 30.21 in 10.0 mi North 11.5 mph - N/A   Overcast
8:51 PM 17.1 °F 2.5 °F 7.0 °F 65% 30.21 in 10.0 mi NNW 15.0 mph - N/A   Overcast
9:51 PM 16.0 °F 1.7 °F 1.9 °F 54% 30.22 in 10.0 mi NNW 13.8 mph - N/A   Overcast
10:51 PM 14.0 °F -1.4 °F -0.0 °F 54% 30.22 in 10.0 mi North 15.0 mph - 0.00 in   Overcast
11:51 PM 14.0 °F -0.2 °F -0.0 °F 54% 30.24 in 10.0 mi North 12.7 mph - 0.00 in   Overcast